CW8081 Weather Reports


time (UTC)temp
F
wind
direction
speed
knots
gust
knots
rain 1hr
in
rain 24hr
in
rain mn
in
humidity
%
barometer
mb
20260831150603 89 0 0.0 0.0 0.00 0.00 0.00 56 1013.1
20260831143603 89 0 0.0 0.0 0.00 0.00 0.00 55 1013.2
20260831143104 89 0 0.0 0.0 0.00 0.00 0.00 55 1013.2
20260831141104 90 0 0.0 0.0 0.00 0.00 0.00 53 1013.2
20260831140604 90 0 0.0 0.0 0.00 0.00 0.00 55 1013.3
20260831140105 90 0 0.0 0.0 0.00 0.00 0.00 54 1013.3
20260831134104 90 0 0.0 0.0 0.00 0.00 0.00 54 1013.6
20260831133604 90 0 0.0 0.0 0.00 0.00 0.00 54 1013.6
20260831133103 90 0 0.0 0.0 0.00 0.00 0.00 52 1013.6
20260831131603 90 0 0.0 0.0 0.00 0.00 0.00 52 1013.6
20260831131104 90 0 0.0 0.0 0.00 0.00 0.00 52 1013.6
20260831130105 91 356 0.0 0.0 0.00 0.00 0.00 52 1013.7
20260831124104 90 358 0.0 0.0 0.00 0.00 0.00 53 1013.9
20260831123604 90 359 0.0 0.0 0.00 0.00 0.00 52 1014.0
20260831123104 90 0 0.0 0.0 0.00 0.00 0.00 52 1014.0
20260831120604 90 0 0.0 0.0 0.00 0.00 0.00 54 1014.3
20260831120105 90 357 0.0 0.0 0.00 0.00 0.00 54 1014.6
20260831114604 89 0 0.0 0.0 0.00 0.00 0.00 55 1014.6
20260831113604 89 0 0.0 0.0 0.00 0.00 0.00 56 1014.7
20260831110604 89 0 0.0 0.0 0.00 0.00 0.00 56 1014.7
20260831110104 89 0 0.0 0.0 0.00 0.00 0.00 57 1014.7
20260831103104 88 343 0.0 0.0 0.00 0.00 0.00 59 1015.0
20260831101104 87 354 0.0 0.0 0.00 0.00 0.00 57 1015.7
20260831100604 87 0 0.0 0.0 0.00 0.00 0.00 56 1015.7
20260831094603 86 0 0.0 0.0 0.00 0.00 0.00 61 1015.7
20260831094104 86 0 0.0 0.0 0.00 0.00 0.00 63 1015.7
20260831093604 86 0 0.0 0.0 0.00 0.00 0.00 63 1015.7
20260831093104 86 345 0.0 0.0 0.00 0.00 0.00 67 1015.7
20260831091104 85 347 0.0 0.0 0.00 0.00 0.00 68 1015.7
20260831090603 85 0 0.0 0.0 0.00 0.00 0.00 67 1015.8
20260831090104 85 315 0.0 0.0 0.00 0.00 0.00 67 1015.8
20260831084603 85 358 0.0 0.0 0.00 0.00 0.00 67 1015.8
20260831084104 85 354 0.0 0.0 0.00 0.00 0.00 66 1015.8
20260831083604 85 268 0.0 0.0 0.00 0.00 0.00 67 1015.8
20260831081603 85 354 0.0 0.0 0.00 0.00 0.00 64 1015.8
20260831080105 84 0 0.0 0.0 0.00 0.00 0.00 65 1015.7
20260831074103 84 0 0.0 0.0 0.00 0.00 0.00 66 1015.7
20260831071103 83 0 0.0 0.0 0.00 0.00 0.00 67 1015.4
20260831070603 83 0 0.0 0.0 0.00 0.00 0.00 67 1015.4
20260831064103 81 0 0.0 0.0 0.00 0.00 0.00 67 1015.4
20260831063603 80 0 0.0 0.0 0.00 0.00 0.00 66 1015.4
20260831063104 80 0 0.0 0.0 0.00 0.00 0.00 66 1015.4
20260831061603 79 0 0.0 0.0 0.00 0.00 0.00 69 1015.4
20260831060603 78 0 0.0 0.0 0.00 0.00 0.00 67 1015.4
20260831054604 76 0 0.0 0.0 0.00 0.00 0.00 70 1015.4
20260831054103 76 0 0.0 0.0 0.00 0.00 0.00 72 1015.4
20260831051604 74 0 0.0 0.0 0.00 0.00 0.00 74 1015.4
20260831051103 74 0 0.0 0.0 0.00 0.00 0.00 75 1015.3
20260831050603 73 0 0.0 0.0 0.00 0.00 0.00 74 1015.3
20260831050104 73 0 0.0 0.0 0.00 0.00 0.00 73 1015.3
20260831043603 73 0 0.0 0.0 0.00 0.00 0.00 73 1015.2
20260831043104 73 0 0.0 0.0 0.00 0.00 0.00 73 1015.2
20260831041604 73 0 0.0 0.0 0.00 0.00 0.00 75 1015.2
20260831041103 73 0 0.0 0.0 0.00 0.00 0.00 75 1015.1
20260831031104 74 0 0.0 0.0 0.00 0.00 0.00 78 1015.1
20260831030604 74 0 0.0 0.0 0.00 0.00 0.00 78 1015.1
20260831030104 74 0 0.0 0.0 0.00 0.00 0.00 78 1015.1
20260831024104 74 0 0.0 0.0 0.00 0.00 0.00 76 1015.1
20260831023604 74 0 0.0 0.0 0.00 0.00 0.00 76 1015.1
20260831021104 74 0 0.0 0.0 0.00 0.00 0.00 74 1015.3
20260831014603 74 0 0.0 0.0 0.00 0.00 0.00 72 1015.3
20260831014104 74 0 0.0 0.0 0.00 0.00 0.00 72 1015.3
20260831013103 74 0 0.0 0.0 0.00 0.00 0.00 72 1015.2
20260831011603 74 0 0.0 0.0 0.00 0.00 0.00 74 1015.2
20260831004103 76 0 0.0 0.0 0.00 0.00 0.00 77 1015.1
20260831003603 76 0 0.0 0.0 0.00 0.00 0.00 77 1015.1
20260831003104 76 0 0.0 0.0 0.00 0.00 0.00 77 1015.1
20260831001103 76 0 0.0 0.0 0.00 0.00 0.00 77 1015.1
20260831000603 76 0 0.0 0.0 0.00 0.00 0.00 77 1015.2
20260831000105 76 0 0.0 0.0 0.00 0.00 0.00 77 1015.2
20260830234604 76 0 0.0 0.0 0.00 0.00 0.00 77 1015.2
20260830233603 76 0 0.0 0.0 0.00 0.00 0.00 77 1015.2
20260830233104 76 0 0.0 0.0 0.00 0.00 0.00 77 1015.3
20260830230604 76 0 0.0 0.0 0.00 0.00 0.00 77 1015.4
20260830230104 76 0 0.0 0.0 0.00 0.00 0.00 77 1015.4
20260830224603 76 0 0.0 0.0 0.00 0.00 0.00 77 1015.4
20260830223604 76 0 0.0 0.0 0.00 0.00 0.00 77 1015.6
20260830223104 76 0 0.0 0.0 0.00 0.00 0.00 77 1015.6
20260830221604 77 0 0.0 0.0 0.00 0.00 0.00 77 1015.6
20260830221103 77 0 0.0 0.0 0.00 0.00 0.00 77 1015.6
20260830220104 77 0 0.0 0.0 0.00 0.00 0.00 77 1015.6
20260830211606 78 0 0.0 0.0 0.00 0.00 0.00 74 1015.3
20260830210607 78 0 0.0 0.0 0.00 0.00 0.00 74 1015.3
20260830210107 78 0 0.0 0.0 0.00 0.00 0.00 74 1015.3
20260830204607 79 0 0.0 0.0 0.00 0.00 0.00 73 1015.2
20260830204106 79 0 0.0 0.0 0.00 0.00 0.00 73 1015.2
20260830203606 79 0 0.0 0.0 0.00 0.00 0.00 74 1015.2
20260830201107 79 0 0.0 0.0 0.00 0.00 0.00 74 1015.2
20260830200107 79 0 0.0 0.0 0.00 0.00 0.00 74 1015.2
20260830194106 80 0 0.0 0.0 0.00 0.00 0.00 74 1015.3
20260830193607 80 0 0.0 0.0 0.00 0.00 0.00 74 1015.3
20260830191607 80 0 0.0 0.0 0.00 0.00 0.00 74 1015.3
20260830191107 80 0 0.0 0.0 0.00 0.00 0.00 73 1015.4
20260830183107 80 0 0.0 0.0 0.00 0.00 0.00 73 1015.0
20260830181606 81 0 0.0 0.0 0.00 0.00 0.00 72 1014.8
20260830181107 81 0 0.0 0.0 0.00 0.00 0.00 72 1014.5
20260830180107 81 0 0.0 0.0 0.00 0.00 0.00 71 1014.5
20260830174106 82 0 0.0 0.0 0.00 0.00 0.00 69 1013.7
20260830173606 82 0 0.0 0.0 0.00 0.00 0.00 69 1013.7
20260830170607 83 0 0.0 0.0 0.00 0.00 0.00 66 1013.7
20260830170108 83 0 0.0 0.0 0.00 0.00 0.00 66 1013.7
20260830164606 84 0 0.0 0.0 0.00 0.00 0.00 67 1013.6
20260830163606 84 0 0.0 0.0 0.00 0.00 0.00 67 1013.6
20260830163107 85 0 0.0 0.0 0.00 0.00 0.00 67 1013.3
20260830160107 86 0 0.0 0.0 0.00 0.00 0.00 65 1013.3
20260830153107 87 0 0.0 0.0 0.00 0.00 0.00 62 1013.3
20260830151607 88 0 0.0 0.0 0.00 0.00 0.00 61 1013.3